[[{"header":{"parameterUnit":"m.s-1","parameterCategory":1,"la1":30.2992,"la2":30.254,"lo1":-89.0895,"lo2":-89.0443,"dy":0.0025,"dx":0.0025,"nx":19,"ny":19,"refTime":"2026-03-16T09:00:00:Z","depth":0,"parameterNumber":2,"parameterNumberName":"U-component_of_WINDS"},"data":[0,0,0,4.0561,4.0564,4.0692,4.0692,4.0861,4.0863,0,0,0,0,0,0,0,0,0,0,0,4.0525,4.0526,4.0561,4.0564,4.0692,4.0692,4.0861,4.0863,0,0,0,0,0,0,0,0,0,0,0,4.0524,4.0526,4.0527,4.0564,4.0692,4.0692,4.0861,4.0762,0,0,0,0,0,0,0,0,0,0,4.0637,4.0606,4.0526,4.0527,4.0565,4.0692,4.0693,4.0758,4.0769,4.0805,0,4.0837,0,4.0853,4.0874,4.0875,0,0,0,4.0563,4.0597,4.0629,4.0528,4.0566,4.0691,4.0634,4.0764,4.0776,4.082,4.084,4.0846,4.0856,4.0876,4.0876,4.1092,4.1093,0,0,4.0555,4.0549,4.0621,4.0637,4.0617,4.063,4.0638,4.0771,4.0793,4.084,4.085,4.0859,4.0877,4.0878,4.1091,4.1093,0,0,0,4.0536,4.0544,4.0574,4.0631,4.0653,4.0633,4.0643,4.0787,4.0797,4.0852,4.0861,4.0878,4.088,4.109,4.1092,4.1139,0,0,0,4.0532,4.0533,4.0571,4.0568,4.0651,4.0721,4.0655,4.0788,4.0803,4.086,4.0878,4.0882,4.1089,4.1091,4.1136,4.1163,0,0,0,4.0516,4.0531,4.055,4.0567,4.0622,4.0719,4.0737,4.0791,4.0809,4.0875,4.0882,4.1088,4.1091,4.1132,4.1157,4.1219,0,0,0,4.0497,4.0589,4.0551,4.0658,4.0621,4.0748,4.0736,4.0831,4.0894,4.0879,4.1089,4.1092,4.1131,4.1154,4.1215,4.127,4.1292,0,0,4.061,4.0603,4.0666,4.0636,4.0767,4.0729,4.0868,4.0931,4.0943,4.1042,4.1048,4.1137,4.1157,4.1218,4.1417,4.1435,0,0,0,4.07,4.0746,4.0782,4.0842,4.0893,4.094,4.0983,4.1007,4.1091,4.0993,4.1176,4.1188,4.1224,4.1251,4.1266,4.1298,4.1103,4.1103,4.1103,4.085,4.0862,4.0969,4.0996,4.1055,4.11,4.1148,4.1189,4.1182,4.1226,4.1255,4.1374,4.1405,4.1416,4.145,4.1284,4.1285,4.1285,4.1285,4.1018,4.1085,4.1076,4.1177,4.1189,4.1274,4.1322,4.1315,4.1397,4.1352,4.1385,4.1335,4.1435,4.1465,4.1289,4.1288,4.1287,4.1287,4.1287,4.1117,4.1152,4.118,4.127,4.1338,4.1363,4.1443,4.1451,4.146,4.1492,4.1525,4.1524,4.1525,4.1507,4.1508,4.1508,4.1508,4.1509,4.1509,4.121,4.1241,4.1306,4.1371,4.1412,4.1467,4.1515,4.1556,4.1603,4.1603,4.1603,4.1594,4.1442,4.1404,4.1515,4.1514,4.1513,4.1513,4.1512,4.1376,4.134,4.1442,4.1483,4.1561,4.1629,4.164,4.1723,4.1758,4.1798,4.1783,4.1669,4.1662,4.165,4.1619,4.1779,4.1779,4.1779,4.1779,4.1461,4.1459,4.1566,4.1632,4.1697,4.1718,4.1835,4.1874,4.1909,4.1932,4.1911,4.187,4.1857,4.1858,4.1842,4.1813,4.2019,4.2019,4.2019,4.1564,4.1569,4.1666,4.17,4.1762,4.1816,4.1927,4.2004,4.2037,4.2029,4.1951,4.1941,4.1875,4.1853,4.1842,4.1817,4.1764,0,0]},{"header":{"parameterUnit":"m.s-1","parameterCategory":1,"la1":30.2992,"la2":30.254,"lo1":-89.0895,"lo2":-89.0443,"dy":0.0025,"dx":0.0025,"nx":19,"ny":19,"refTime":"2026-03-16T09:00:00:Z","depth":0,"parameterNumber":3,"parameterNumberName":"V-component_of_WINDS"},"data":[0,0,0,-8.5348,-8.5356,-8.5719,-8.572,-8.6177,-8.6181,0,0,0,0,0,0,0,0,0,0,0,-8.5237,-8.524,-8.5348,-8.5357,-8.5719,-8.572,-8.6176,-8.6181,0,0,0,0,0,0,0,0,0,0,0,-8.5235,-8.5239,-8.5243,-8.5358,-8.5718,-8.572,-8.6175,-8.5904,0,0,0,0,0,0,0,0,0,0,-8.5553,-8.5446,-8.5238,-8.5243,-8.536,-8.5718,-8.5721,-8.5891,-8.5921,-8.601,0,-8.6088,0,-8.6142,-8.6211,-8.6213,0,0,0,-8.536,-8.5421,-8.5523,-8.5243,-8.5363,-8.5717,-8.5556,-8.5908,-8.5942,-8.6049,-8.6094,-8.6111,-8.6149,-8.6214,-8.6216,-8.672,-8.6722,0,0,-8.534,-8.53,-8.55,-8.5545,-8.5488,-8.5545,-8.5567,-8.5929,-8.5975,-8.6096,-8.6122,-8.6157,-8.6217,-8.622,-8.6718,-8.6721,0,0,0,-8.528,-8.5285,-8.5378,-8.5526,-8.5591,-8.5555,-8.5581,-8.5959,-8.5992,-8.6127,-8.6162,-8.622,-8.6225,-8.6716,-8.6719,-8.6791,0,0,0,-8.5268,-8.5251,-8.537,-8.5348,-8.5585,-8.578,-8.5603,-8.5967,-8.6009,-8.616,-8.622,-8.623,-8.6713,-8.6717,-8.6784,-8.6832,0,0,0,-8.5215,-8.5244,-8.5296,-8.5346,-8.55,-8.5775,-8.5829,-8.5977,-8.6031,-8.6213,-8.6231,-8.6712,-8.6717,-8.6777,-8.6821,-8.6954,0,0,0,-8.5145,-8.5352,-8.5296,-8.5541,-8.5497,-8.5816,-8.5827,-8.6067,-8.6232,-8.6222,-8.6714,-8.6719,-8.6775,-8.6815,-8.6947,-8.706,-8.7103,0,0,-8.5384,-8.538,-8.5527,-8.5487,-8.5807,-8.5764,-8.6095,-8.6283,-8.6336,-8.6589,-8.6602,-8.6786,-8.6821,-8.6953,-8.7354,-8.7388,0,0,0,-8.5589,-8.5695,-8.5788,-8.5944,-8.6094,-8.6227,-8.6369,-8.644,-8.6657,-8.6458,-8.687,-8.6892,-8.6972,-8.7027,-8.7056,-8.7128,-8.6742,-8.6742,-8.6741,-8.5869,-8.5928,-8.6177,-8.6281,-8.6432,-8.6578,-8.6706,-8.6826,-8.6839,-8.6936,-8.7012,-8.7248,-8.7312,-8.7334,-8.7408,-8.7075,-8.7075,-8.7075,-8.7075,-8.6226,-8.6386,-8.6402,-8.6649,-8.671,-8.6918,-8.7068,-8.7071,-8.7274,-8.7195,-8.7268,-8.7177,-8.7369,-8.7437,-8.7082,-8.708,-8.708,-8.7079,-8.7079,-8.6418,-8.6505,-8.6587,-8.6821,-8.6994,-8.7092,-8.7287,-8.7335,-8.7382,-8.7454,-8.7541,-8.754,-8.7546,-8.7492,-8.7493,-8.7493,-8.7494,-8.7495,-8.7495,-8.6584,-8.6675,-8.6834,-8.7013,-8.7121,-8.7269,-8.7419,-8.7527,-8.7659,-8.7678,-8.7679,-8.7685,-8.7376,-8.7299,-8.7508,-8.7506,-8.7504,-8.7503,-8.7502,-8.6926,-8.6857,-8.7103,-8.7211,-8.7426,-8.7596,-8.7656,-8.7872,-8.7968,-8.8063,-8.8054,-8.7817,-8.7816,-8.7794,-8.773,-8.8039,-8.8039,-8.8039,-8.8039,-8.7089,-8.7093,-8.7357,-8.7528,-8.77,-8.778,-8.8057,-8.8177,-8.829,-8.8353,-8.8315,-8.8235,-8.8209,-8.8223,-8.8192,-8.8133,-8.8538,-8.8538,-8.8539,-8.7304,-8.7328,-8.7554,-8.7664,-8.7837,-8.7984,-8.8247,-8.8443,-8.8556,-8.856,-8.8405,-8.8384,-8.8254,-8.8208,-8.8208,-8.8157,-8.8051,0,0]}]]